Location: Unspecified
(0.0000°N, 0.0000°E)
Time: 20:40:32
(UTC+00:00)

COSMOS 1275 DEB - Pass Details

Date: 20 March 2026
Orbit: 902 x 973 km, 82.9° (Epoch: 8 April)

Event Time Altitude Azimuth Distance (km) Brightness Sun altitude
Rises 19:21:23 0° 331° (NNW) 3,653 ? -18.5°
Reaches altitude 10° 19:24:26 10° 316° (NW) 2,706 ? -19.3°
Maximum altitude 19:29:07 23° 267° (W) 1,949 ? -20.4°
Drops below altitude 10° 19:33:47 10° 218° (SW) 2,694 ? -21.6°
Sets 19:36:50 0° 203° (SSW) 3,632 ? -22.4°
